Hebron, KY

4:13 AM EDT on September 25, 2016 (GMT -0400)
Cincinnati-Northern KY International

Weather History for KCVG - November, 2014

Change the Weather History Date:

Saturday, November 15, 2014

  Actual Average Record
Temperature  
Mean Temperature 26 °F 46 °F  
Max Temperature 37 °F 54 °F 74 °F (1931)
Min Temperature 15 °F 37 °F 14 °F (1916)
Degree Days  
Heating Degree Days 39 20  
Month to date heating degree days 348 253  
Since 1 July heating degree days 704 615  
Cooling Degree Days 0 0  
Month to date cooling degree days 0 0  
Year to date cooling degree days 1077 1121  
Moisture  
Dew Point 14 °F    
Average Humidity 61    
Maximum Humidity 84    
Minimum Humidity 37    
Precipitation  
Precipitation T in 0.12 in 1.87 in (2005)
Month to date precipitation 0.20 1.61  
Year to date precipitation 37.12 37.33  
Snow  
Snow T in 0.00 in 0.40 in (1997)
Month to date snowfall T 0.1  
Since 1 July snowfall T 0.5  
Since 1 September snowfall T 0.5  
Snow Depth 0.00 in    
Sea Level Pressure  
Sea Level Pressure 30.37 in    
Wind  
Wind Speed 3 mph (SSE)    
Max Wind Speed 10 mph    
Max Gust Speed 15 mph    
Visibility 9 miles    
Events Snow    
T = Trace of Precipitation, MM = Missing Value Source: NWS Daily Summary

Daily Weather History Graph

Daily Weather History Graph

Search for Another Location

Airport or City:

Trip Planner

Search our weather history database for the weather conditions in past years. The results will help you decide how hot, cold, wet, or windy it might be!

Date:

Astronomy

Nov. 15, 2014 Rise Set
Actual Time 7:21 AM EST 5:24 PM EST
Civil Twilight 6:53 AM EST 5:53 PM EST
Nautical Twilight 6:20 AM EST 6:25 PM EST
Astronomical Twilight 5:49 AM EST 6:56 PM EST
Moon 12:36 AM EST (11/15) 1:44 PM EST (11/15)
Length of Visible Light 10h 59m
Length of Day
10h 02m
Last Quarter, 40% of the Moon is Illuminated
Nov 15
Last Quarter
Nov 22
New
Nov 29
First Quarter
Dec 6
Full
Dec 14
Last Quarter

Hourly Weather History & Observations

Time (EST) Temp. Windchill Dew Point Humidity Pressure Visibility Wind Dir Wind Speed Gust Speed Precip Events Conditions
12:52 AM 21.0 °F - 10.9 °F 65% 30.42 in 10.0 mi Calm Calm - N/A   Clear
1:52 AM 23.0 °F - 12.9 °F 65% 30.41 in 10.0 mi Calm Calm - N/A   Partly Cloudy
2:52 AM 21.9 °F 17.2 °F 12.9 °F 68% 30.41 in 10.0 mi NE 3.5 mph - N/A   Partly Cloudy
3:52 AM 21.0 °F - 12.9 °F 71% 30.42 in 10.0 mi Calm Calm - N/A   Scattered Clouds
4:52 AM 19.9 °F - 12.9 °F 74% 30.42 in 10.0 mi Calm Calm - N/A   Clear
5:52 AM 15.1 °F - 10.0 °F 80% 30.43 in 7.0 mi Calm Calm - N/A   Clear
5:59 AM 15.8 °F - 10.4 °F 79% 30.40 in 1.8 mi Calm Calm - N/A   Haze
6:02 AM 15.8 °F - 12.2 °F 86% 30.40 in 10.0 mi Calm Calm - N/A   Clear
6:52 AM 18.0 °F - 14.0 °F 84% 30.43 in 10.0 mi Calm Calm - N/A   Clear
7:52 AM 19.9 °F - 14.0 °F 78% 30.44 in 10.0 mi Calm Calm - N/A   Partly Cloudy
8:52 AM 25.0 °F - 17.1 °F 72% 30.46 in 8.0 mi Calm Calm - N/A   Partly Cloudy
9:52 AM 28.9 °F 25.2 °F 17.1 °F 61% 30.46 in 9.0 mi South 3.5 mph - N/A   Scattered Clouds
10:52 AM 32.0 °F 28.7 °F 15.1 °F 50% 30.45 in 10.0 mi South 3.5 mph - N/A   Mostly Cloudy
11:52 AM 34.0 °F 28.8 °F 14.0 °F 44% 30.43 in 10.0 mi South 5.8 mph - N/A   Mostly Cloudy
12:52 PM 35.1 °F 31.0 °F 14.0 °F 42% 30.39 in 10.0 mi South 4.6 mph - N/A   Overcast
1:52 PM 36.0 °F 31.1 °F 12.9 °F 39% 30.35 in 10.0 mi South 5.8 mph - N/A   Overcast
2:52 PM 37.0 °F 34.5 °F 14.0 °F 39% 30.33 in 10.0 mi SSE 3.5 mph - N/A   Mostly Cloudy
3:52 PM 36.0 °F - 12.9 °F 39% 30.31 in 10.0 mi Calm Calm - N/A   Mostly Cloudy
4:52 PM 36.0 °F 31.1 °F 15.1 °F 43% 30.31 in 10.0 mi SSE 5.8 mph - N/A   Overcast
5:52 PM 33.1 °F 26.1 °F 14.0 °F 46% 30.30 in 10.0 mi SE 8.1 mph - N/A   Overcast
6:52 PM 33.1 °F 28.7 °F 14.0 °F 46% 30.29 in 10.0 mi ESE 4.6 mph - N/A   Overcast
7:52 PM 33.1 °F 28.7 °F 15.1 °F 48% 30.27 in 10.0 mi SE 4.6 mph - N/A   Overcast
8:52 PM 34.0 °F 29.8 °F 16.0 °F 48% 30.27 in 10.0 mi SSE 4.6 mph - N/A   Overcast
9:52 PM 34.0 °F - 16.0 °F 48% 30.27 in 10.0 mi Calm Calm - N/A   Overcast
10:52 PM 34.0 °F 31.0 °F 17.1 °F 50% 30.25 in 10.0 mi SSE 3.5 mph - N/A   Overcast
11:52 PM 33.1 °F - 18.0 °F 54% 30.25 in 6.0 mi Calm Calm - 0.00 in Snow Light Snow